Location: Mercogliano
(40.9167°N, 14.7333°E)
Time: 14:41:48
(UTC+00:00)

X-37B - Pass Details

Date: 25 November 2020
Orbit: 384 x 390 km, 45.0° (Epoch: 02 January)

Event Time Altitude Azimuth Distance (km) Brightness Sun altitude
Rises 16:49:47 0° 200° (SSW) 2,250 5.0 -13.8°
Reaches altitude 10° 16:52:36 10° 172° (S) 1,403 3.5 -14.3°
Maximum altitude 16:54:15 13° 140° (SE) 1,218 2.8 -14.6°
Enters shadow 16:54:29 13° 135° (SE) 1,223 2.8 -14.7°
